Location: Cuiry
(49.3858°N, 3.7708°E)
Time: 00:56:33
(UTC+00:00)

IGS 5A - Pass Details

Date: 12 January 2026
Orbit: 551 x 554 km, 97.4° (Epoch: 8 January)

Event Time Altitude Azimuth Distance (km) Brightness Sun altitude
Rises 16:56:40 0° 178° (S) 2,719 7.2 -7.5°
Reaches altitude 10° 16:58:50 10° 183° (S) 1,829 6.4 -7.8°
Maximum altitude 17:02:42 52° 260° (W) 692 4.3 -8.4°
Drops below altitude 10° 17:06:36 10° 338° (NNW) 1,843 6.0 -9.0°
Sets 17:08:48 0° 343° (NNW) 2,742 6.8 -9.3°
